Hauptseite
METAR-TAF:

METAR-TAF

Flughäfen :

Flughafen Vannes

Vannes, Frankreich

Breite: 47-43-19N, Länge: 2-43-41W, Höhe: 130 m

Beobachtung

Neuester Wetterbericht von vor 30 Minuten, um 21:00 UTC
Wind 18 kt aus Ost/Nordost
Temperatur 4°C
Luftfeuchtigkeit 1%
Luftdruck 1015 hPa
Sichtweite 10 km oder mehr
keine Wolken unter 1500 m und keine Kumulonimbus oder Gewitterwolken

METAR: LFRV 182100Z AUTO 06018KT CAVOK 04/M48 Q1015

Zeit: 22:30 (21:30 UTC)


TAF: fehlend

Wetterbeobachtungen und Prognosen von mehr als 4000 Flughäfen (METAR und TAF Bericht).

Die verfügbaren Stationen werden durch gelbe und rote Markierungen auf der Karte dargestellt.

Führen Sie die Maus auf sie, um den Namen der Station zu sehen.

Darauf klicken, um die Beobachtung von Wetterbeobachtungen und Prognosen zu sehen.

Um die Karte zu ändern : klicken Sie auf den grünen Tasten mit einem schwarzen Kreuz Zum Vergrößern, auf den grünen Button mit einem Gedankenstrich zu verkleinern, oder auf die grünen Pfeile für benachbarte Karten.


METAR-TAF: